Вернуться в каталог

SL-12 DEB

АктивенUNKNOWN
NORAD 36882·DEBRIS·🇷🇺 Russia

Запущен Jan 10, 1989 с Baikonur Cosmodrome

Loading…

Ближайшие Пролёты (ближайшие 24 часа)

TLE

СвежийSource: Space-Track

Эпоха: Sep 13, 2026, 01:35 UTC

1 36882U 89001V   26256.06607763 -.00004132  00000-0 -22269-1 0  9995
2 36882  64.9016 242.2152 1847018  51.9992 323.3748 10.24768470565271

Отслеживайте SL-12 DEB в реальном времени с AllMySat

Download on the App Store